Tracking 18647 objects as of 28-May-2017
HD Live streaming from Space Station
objects crossing your sky now

COSMOS 785

Track COSMOS 785 now!
10-day predictions
COSMOS 785 is classified as:


NORAD ID: 8473
Int'l Code: 1975-116A
Perigee: 903.9 km
Apogee: 1,022.8 km
Inclination: 65.1 °
Period: 104.2 minutes
Semi major axis: 7334 km
RCS: 3.5974 m2 (large)
Launch date: December 12, 1975
Source: Commonwealth of Independent States (former USSR) (CIS)
Launch site: TYURATAM MISSILE AND SPACE COMPLEX (TTMTR)
Your satellite tracking list
Your tracking list is empty





NASA's NSSDC Master Catalog

Two Line Element Set (TLE):
1  8473U 75116A   17147.81058342 -.00000061 +00000-0 +23849-4 0  9991
2  8473 065.0775 230.4502 0081101 350.2091 009.7384 13.82169004091927
Source of the keplerian elements: AFSPC